TIME,DELAY(SENSOR),PRES,OXYGEN,RAWTEMP,T(OPTODE),TCPHASE,FLUOR,BETA(BETA700),BETA(BETA412),BETA(BETA440),CDOM,C(CSC),ED(ED411.90),ED(ED443.80),ED(ED489.40),ED(ED554.70),LU(LU412.20),LU(LU443.80),LU(LU489.40),LU(LU555.00),COMP,TILTX,TILTY,CHECK
1377037280,5808,885.1500244140625000,131.4098052978515600,465.5887145996094000,8.5932941436767580,42.4201889038085940,86,1942,50,52,57,10374,2146962038,2147517549,2147297782,2147505508,2147083830,2146925156,2147709376,2147120914,786,-1,8,57503
1377040876,5807,1003.5200195312500000,175.4329986572265600,528.1361083984375000,6.6538681983947750,40.0080299377441400,89,1967,51,53,57,10369,2146966244,2147516982,2147302793,2147517513,2147084891,2146921417,2147720493,2147125851,500,-1,8,21915
1377044476,5809,1029.0300292968750000,171.2823028564453000,539.6981201171875000,6.2923870086669920,40.5065002441406250,88,1955,51,53,57,10366,2146962011,2147521353,2147302390,2147519122,2147084955,2146919204,2147725787,2147121060,2695,-1,8,50935
1377048076,5806,1031.2299804687500000,178.6174011230468800,543.6865844726562000,6.1674518585205080,40.0661506652832000,87,1952,52,52,57,10364,2146962203,2147518336,2147303981,2147517696,2147084452,2146920475,2147728475,2147121088,3262,-1,8,33430
1377051676,5804,1039.4000244140625000,202.7935028076172000,543.8187255859375000,6.1633129119873050,38.5067710876464840,88,1950,51,52,57,10356,2146963392,2147521371,2147301741,2147514496,2147084059,2146916726,2147725184,2147123968,135,-1,8,41724
1377055276,5805,1041.3100585937500000,171.6221923828125000,546.2614746093750000,6.0867309570312500,40.6008110046386700,88,1949,50,51,57,10353,2146964160,2147523446,2147303899,2147518994,2147086034,2146913920,2147724434,2147121188,432,-1,8,65430
1377058876,5806,1032.8699951171875000,197.0729064941406200,547.7672119140625000,6.0395088195800780,38.9313201904296900,87,1954,50,51,58,10350,2146966372,2147522185,2147305920,2147521444,2147085376,2146918857,2147728850,2147123172,3340,-1,8,62490
1377062476,5808,1033.9399414062500000,157.9618072509765600,548.0665283203125000,6.0301170349121090,41.6349792480468750,87,1953,51,52,58,10353,2146965019,2147522166,2147302592,2147523282,2147084324,2146913947,2147730422,2147120393,50,-1,8,23586
1377066076,5806,1031.9100341796875000,160.5467987060547000,547.7683715820312000,6.0394687652587890,41.4357986450195300,88,1957,50,51,58,10353,2146962980,2147522194,2147301723,2147520292,2147083803,2146917686,2147729718,2147118893,13,-1,8,42464
1377069676,5805,1017.7500000000000000,188.5834960937500000,538.8032836914062000,6.3203978538513180,39.3120193481445300,89,1965,51,51,58,10349,2146965732,2147518838,2147301202,2147520502,2147084379,2146923474,2147727606,2147124699,3377,0,8,3398
1377073276,5807,1013.4299926757812000,173.9960937500000000,537.6511230468750000,6.3564591407775880,40.2789916992187500,88,1967,50,51,58,10351,2146964105,2147520265,2147303963,2147516699,2147082532,2146916827,2147724443,2147119542,111,0,8,1586
1377076876,5806,1008.2899780273438000,128.6224975585937500,538.9197998046875000,6.3167510032653810,43.8823890686035160,88,1975,51,52,57,10350,2146960722,2147518582,2147302006,2147516644,2147084617,2146919945,2147723108,2147120905,3018,-1,8,52830
1377080476,5809,1017.2800292968750000,191.4463958740234400,538.8480834960938000,6.3189959526062010,39.1274909973144500,88,1982,50,51,57,10348,2146962752,2147519689,2147305353,2147516955,2147086198,2146915538,2147724882,2147123574,3578,0,8,63089
1377084076,5808,1023.3400268554688000,200.3388061523437500,535.8076782226562000,6.4141330718994140,38.5121803283691400,89,1989,50,52,58,10347,2146960082,2147519021,2147302244,2147515766,2147085897,2146912448,2147721462,2147121700,156,-1,8,62461
1377087676,5805,1022.0100097656250000,203.7077941894531200,535.9216918945312000,6.4105658531188965,38.3087615966796900,88,1991,50,52,57,10348,2146958272,2147517814,2147302784,2147519204,2147085202,2146917376,2147723812,2147124032,700,-1,8,44641
1377091276,5808,1021.4099731445312000,195.3782043457031200,535.7197265625000000,6.4168829917907715,38.8208808898925800,89,2002,51,51,57,10348,2146963053,2147517668,2147304164,2147518034,2147086701,2146919040,2147723053,2147125385,994,0,8,16119
1377094876,5807,1021.6500244140625000,179.6468963623047000,536.5078125000000000,6.3922309875488280,39.8666191101074200,89,2009,50,50,57,10345,2146963995,2147518802,2147299876,2147516772,2147084937,2146923730,2147722358,2147125878,568,0,8,32455
1377098476,5807,1028.6199951171875000,198.8899993896484400,535.3834228515625000,6.4274010658264160,38.5939292907714840,89,2009,50,51,57,10346,2146965467,2147520868,2147303570,2147518418,2147086162,2146920054,2147720768,2147123712,3395,0,8,56164
1377102076,5808,1032.5999755859375000,195.2359008789062500,534.1411743164062000,6.4662480354309080,38.8009109497070300,89,2010,50,51,58,10344,2146960475,2147515337,2147303067,2147517568,2147084480,2146916507,2147720000,2147123593,3564,-1,8,55856
1377105676,5808,1030.5600585937500000,196.3690032958984400,533.3933715820312000,6.4896259307861330,38.7163200378418000,89,2019,50,51,57,10343,2146965266,2147519158,2147302692,2147518966,2147086390,2146919360,2147724251,2147123081,397,-1,8,29551
1377109276,5804,1030.9300537109375000,180.4981994628906200,534.1030273437500000,6.4674420356750490,39.7653694152832000,88,2021,51,52,58,10346,2146962331,2147520804,2147301622,2147518555,2147086601,2146920603,2147725732,2147122843,679,-1,8,22488
1377112876,5805,1014.9899902343750000,197.8540039062500000,524.7935180664062000,6.7581877708435060,38.4695816040039060,89,2022,50,52,57,10345,2146959515,2147521078,2147298953,2147513856,2147083410,2146921472,2147722861,2147122267,2849,-1,8,41083
1377116476,5807,1012.3099975585938000,192.1291961669922000,523.0792236328125000,6.8116588592529300,38.8010902404785160,90,2019,51,52,58,10239,2146963428,2147521252,2147302573,2147512795,2147085869,2146922358,2147717394,2147122258,3206,-1,8,28835
1377120076,5804,1011.6699829101562000,179.7852020263672000,524.4852294921875000,6.7678031921386720,39.6432113647460940,89,2019,50,52,57,10244,2146961298,2147522112,2147299638,2147514002,2147085248,2146920905,2147724114,2147122962,3445,-1,8,21897
1377123676,5806,1012.3200073242188000,189.1752014160156200,524.4597778320312000,6.7685961723327640,39.0170211791992200,89,2018,50,52,57,10233,2146963373,2147519076,2147301220,2147515858,2147082185,2146919652,2147724964,2147121874,3405,-1,8,42203
1377127276,5807,1013.0200195312500000,189.3088073730468800,524.9238281250000000,6.7541208267211910,39.0158309936523440,90,2017,51,50,57,10235,2146960137,2147520045,2147299620,2147515794,2147085184,2146924653,2147720393,2147123858,2972,-1,8,15671
1377130876,5807,1008.1500244140625000,194.2747039794922000,524.8916015625000000,6.7551269531250000,38.6956291198730500,90,2025,50,51,58,10238,2146964050,2147518528,2147300772,2147513243,2147084333,2146921746,2147725558,2147121060,2871,-1,8,42616
1377134476,5805,1012.5800170898438000,194.8811035156250000,525.4307250976562000,6.7383079528808590,38.6678810119628900,90,2017,50,52,56,10231,2146964434,2147520914,2147302427,2147513334,2147084068,2146917101,2147717248,2147120868,3336,-1,8,11486
1377138076,5804,1012.3400268554688000,197.6045989990234400,525.2705078125000000,6.7433052062988280,38.4933891296386700,90,2028,50,51,58,10230,2146961755,2147519414,2147300635,2147516772,2147086518,2146920749,2147719469,2147121005,3268,-1,8,11555
1377141676,5810,1016.5700073242188000,202.9985961914062500,525.4564819335938000,6.7375020980834960,38.1639900207519500,90,2023,50,51,57,10230,2146965348,2147521874,2147304950,2147514285,2147084544,2146921188,2147726299,2147125394,25,-1,8,50232
1377145276,5803,1014.0999755859375000,195.3894958496093800,525.1798706054688000,6.7461328506469730,38.6310310363769500,90,2040,50,52,57,10232,2146962505,2147520365,2147302454,2147512941,2147087552,2146918802,2147721426,2147126317,3538,-1,8,28685
1377148876,5806,1015.7100219726562000,201.9768981933593800,524.8762817382812000,6.7556052207946780,38.2158317565918000,91,2042,50,50,57,10230,2146963300,2147518710,2147304027,2147515620,2147085558,2146921517,2147721362,2147122404,451,-1,8,43333
1377152476,5808,1011.8800048828125000,199.6985015869140600,525.0147094726562000,6.7512860298156740,38.3580398559570300,90,2054,51,52,58,10234,2146961682,2147519734,2147300772,2147515565,2147086171,2146923200,2147720054,2147124050,483,-1,8,31379
1377156076,5805,1018.2999877929688000,205.9927978515625000,525.0654907226562000,6.7497010231018070,37.9760284423828100,90,2052,50,51,58,10231,2146961700,2147521572,2147300608,2147512804,2147084022,2146919387,2147720923,2147120813,868,-1,8,64702
1377159676,5806,1022.4799804687500000,203.9344024658203000,522.9990234375000000,6.8141570091247560,38.0636901855468750,90,2048,50,52,57,10232,2146964406,2147521097,2147302500,2147516672,2147082916,2146925613,2147723986,2147127396,454,-1,8,17730
1377163276,5808,1020.8400268554688000,202.2001037597656200,522.7000122070312000,6.8234820365905760,38.1635818481445300,90,2058,50,53,57,10225,2146963282,2147518582,2147299757,2147508489,2147087817,2146919643,2147721033,2147122486,676,-1,8,11335
1377166876,5806,1022.1900024414062000,202.5843963623047000,522.8707275390625000,6.8181591033935550,38.1437492370605500,91,2064,50,52,57,10227,2146964763,2147521197,2147298514,2147514413,2147084160,2146921417,2147723602,2147121170,720,-1,8,26898
1377170476,5805,1018.6199951171875000,201.2695007324218800,523.2846069335938000,6.8052520751953125,38.2314300537109400,91,2062,50,52,57,10224,2146962523,2147516891,2147298102,2147513874,2147084288,2146921444,2147722678,2147122541,1106,-1,8,8588
1377174076,5809,1020.7100219726562000,181.9066925048828000,524.4431152343750000,6.7691202163696290,39.4987487792968750,90,2073,50,51,58,10217,2146960932,2147521362,2147303268,2147516653,2147084425,2146924388,2147720932,2147119552,181,0,8,22456
1377177676,5806,1022.0200195312500000,191.2471923828125000,523.4216918945312000,6.8009757995605470,38.8635597229003900,90,2078,50,51,58,10220,2146962688,2147518427,2147301001,2147516251,2147084306,2146921380,2147724004,2147124763,3431,0,8,2569
1377178255,5803,1021.2999877929688000,187.2286987304687500,523.3339233398438000,6.8037161827087400,39.1236991882324200,90,2080,50,51,58,10346,2146962697,2147518198,2147305536,2147512877,2147083565,2146922560,2147724726,2147125997,3321,-1,8,61138
